Location: Bridalveil Moraine
(37.7171°N, 119.6568°W)
Time: 23:52:06
(UTC+00:00)

Tiangong - Visible Passes

Search period start: 24 January 2026 00:00
Search period end: 03 February 2026 00:00
Orbit: 378 x 392 km, 41.5° (Epoch: 24 January)

Date Brightness Start Highest point End Pass type
(mag) Time Alt. Az. Time Alt. Az. Time Alt. Az.
24 Jan -1.0 13:23:15 35° NNE 13:23:15 35° NNE 13:25:44 10° ENE visible
25 Jan -1.6 13:58:38 26° NW 14:00:05 48° N 14:03:11 10° E visible
26 Jan 0.1 13:01:44 24° ENE 13:01:44 24° ENE 13:03:18 10° ENE visible
26 Jan -2.1 14:34:05 10° WNW 14:37:16 80° SSW 14:40:27 10° ESE visible
27 Jan -2.1 13:37:01 56° NW 13:37:29 67° NNE 13:40:38 10° E visible
28 Jan 1.1 12:40:05 14° E 12:40:05 14° E 12:40:41 10° E visible
28 Jan -1.6 14:12:17 17° W 14:14:26 46° SSW 14:17:29 10° SE visible
29 Jan -1.3 13:15:20 49° SE 13:15:20 49° SE 13:17:45 10° ESE visible
30 Jan -0.8 13:50:36 23° SW 13:51:18 25° SSW 13:53:59 10° SSE visible
31 Jan 0.6 12:53:41 16° SE 12:53:41 16° SE 12:54:27 10° SE visible
1 Feb 0.4 13:28:59 12° SSW 13:28:59 12° SSW 13:29:41 10° S visible
